Location: Esp�s Alto
(42.4476°N, 0.5876°E)
Time: 13:15:35
(UTC+00:00)

Cosmos 1892 Rocket - Pass Details

Date: 22 October 2019
Orbit: 605 x 634 km, 82.5° (Epoch: 17 November)

Event Time Altitude Azimuth Distance (km) Brightness Sun altitude
Rises 04:39:24 0° 190° (S) 2,899 6.9 -18.9°
Reaches altitude 10° 04:41:38 10° 192° (SSW) 1,992 6.0 -18.5°
Maximum altitude 04:46:03 76° 278° (W) 646 3.4 -17.7°
Drops below altitude 10° 04:50:28 10° 5° (N) 1,990 6.2 -16.9°
Sets 04:52:41 0° 7° (N) 2,895 7.1 -16.5°
